Time,TemperatureF,DewpointF,PressureIn,WindDirection,WindDirectionDegrees,WindSpeedMPH,WindSpeedGustMPH,Humidity,HourlyPrecipIn,Conditions,Clouds,dailyrainin,SoftwareType,DateUTC
2013-03-17 00:02:00,40.0,36.0,29.95,SW,225,2.0,10.0,85,0.00,,,0.13,,2013-03-17 07:02:00,
2013-03-17 00:12:00,40.0,36.0,29.95,SW,225,2.0,10.0,85,0.00,,,0.13,,2013-03-17 07:12:00,
2013-03-17 00:22:00,40.0,36.0,29.97,NNW,329,4.0,9.0,84,0.00,,,0.13,,2013-03-17 07:22:00,
2013-03-17 00:32:00,40.0,36.0,29.97,NNW,329,4.0,9.0,84,0.00,,,0.13,,2013-03-17 07:32:00,
2013-03-17 00:42:00,40.0,36.0,29.97,NNW,329,4.0,9.0,84,0.00,,,0.13,,2013-03-17 07:42:00,
2013-03-17 00:52:00,41.0,37.0,29.98,West,259,2.0,7.0,84,0.00,,,0.13,,2013-03-17 07:52:00,
2013-03-17 01:02:00,41.0,37.0,29.98,West,259,2.0,7.0,84,0.00,,,0.13,,2013-03-17 08:02:00,
2013-03-17 01:12:00,40.0,36.0,29.98,SSW,201,2.0,4.0,85,0.00,,,0.13,,2013-03-17 08:12:00,
2013-03-17 01:20:00,40.0,36.0,30.00,SW,228,1.0,2.0,85,0.00,,,0.13,,2013-03-17 08:20:00,
2013-03-17 01:22:00,40.0,36.0,29.98,SSW,201,2.0,4.0,85,0.00,,,0.13,,2013-03-17 08:22:00,
2013-03-17 01:32:00,40.0,36.0,29.98,SSW,201,2.0,4.0,85,0.00,,,0.13,,2013-03-17 08:32:00,
2013-03-17 01:42:00,40.0,36.0,29.98,SSW,201,2.0,4.0,85,0.00,,,0.13,,2013-03-17 08:42:00,
2013-03-17 01:52:00,40.0,36.0,30.00,SW,228,1.0,2.0,85,0.00,,,0.13,,2013-03-17 08:52:00,
2013-03-17 02:02:00,40.0,36.0,30.00,SW,228,1.0,2.0,85,0.00,,,0.13,,2013-03-17 09:02:00,
2013-03-17 02:12:00,40.0,36.0,30.00,SW,228,1.0,2.0,85,0.00,,,0.13,,2013-03-17 09:12:00,
2013-03-17 02:20:00,39.0,35.0,30.02,SSW,208,1.0,8.0,87,0.00,,,0.13,,2013-03-17 09:20:00,
2013-03-17 02:53:00,39.0,35.0,30.02,SSW,208,1.0,8.0,87,0.00,,,0.13,,2013-03-17 09:53:00,
2013-03-17 03:03:00,39.0,35.0,30.02,SSW,208,1.0,8.0,87,0.00,,,0.13,,2013-03-17 10:03:00,
2013-03-17 03:12:00,39.0,35.0,30.02,SSW,208,1.0,8.0,87,0.00,,,0.13,,2013-03-17 10:12:00,
2013-03-17 03:33:00,39.0,36.0,30.03,SSW,198,3.0,5.0,88,0.00,,,0.13,,2013-03-17 10:33:00,
2013-03-17 03:42:00,39.0,36.0,30.03,SSW,198,3.0,5.0,88,0.00,,,0.13,,2013-03-17 10:42:00,
2013-03-17 03:52:00,39.0,36.0,30.03,SSW,198,3.0,5.0,88,0.00,,,0.13,,2013-03-17 10:52:00,
2013-03-17 04:02:00,39.0,36.0,30.03,SSW,198,3.0,5.0,88,0.00,,,0.13,,2013-03-17 11:02:00,
2013-03-17 04:11:00,39.0,36.0,30.03,SSW,198,3.0,5.0,88,0.00,,,0.13,,2013-03-17 11:11:00,
2013-03-17 04:21:00,39.0,36.0,30.05,NE,49,2.0,3.0,88,0.00,,,0.13,,2013-03-17 11:21:00,
2013-03-17 04:32:00,39.0,36.0,30.05,NE,49,2.0,3.0,88,0.00,,,0.13,,2013-03-17 11:32:00,
2013-03-17 04:42:00,39.0,36.0,30.05,NE,49,2.0,3.0,88,0.00,,,0.13,,2013-03-17 11:42:00,
2013-03-17 04:52:00,40.0,36.0,30.05,SE,127,2.0,7.0,87,0.00,,,0.13,,2013-03-17 11:52:00,
2013-03-17 05:02:00,40.0,36.0,30.05,SE,127,2.0,7.0,87,0.00,,,0.13,,2013-03-17 12:02:00,
2013-03-17 05:12:00,40.0,36.0,30.05,SE,127,2.0,7.0,87,0.00,,,0.13,,2013-03-17 12:12:00,
2013-03-17 05:21:00,40.0,36.0,30.07,ESE,120,0.0,3.0,86,0.00,,,0.13,,2013-03-17 12:21:00,
2013-03-17 05:32:00,40.0,36.0,30.07,ESE,120,0.0,3.0,86,0.00,,,0.13,,2013-03-17 12:32:00,
2013-03-17 05:42:00,40.0,36.0,30.07,ESE,120,0.0,3.0,86,0.00,,,0.13,,2013-03-17 12:42:00,
2013-03-17 05:52:00,40.0,36.0,30.08,SSW,210,0.0,3.0,86,0.00,,,0.13,,2013-03-17 12:52:00,
2013-03-17 06:02:00,40.0,36.0,30.08,SSW,210,0.0,3.0,86,0.00,,,0.13,,2013-03-17 13:02:00,
2013-03-17 06:12:00,40.0,36.0,30.08,SSW,210,0.0,3.0,86,0.00,,,0.13,,2013-03-17 13:12:00,
2013-03-17 06:22:00,40.0,36.0,30.09,ESE,120,0.0,1.0,87,0.00,,,0.13,,2013-03-17 13:22:00,
2013-03-17 06:32:00,40.0,36.0,30.09,ESE,120,0.0,1.0,87,0.00,,,0.13,,2013-03-17 13:32:00,
2013-03-17 06:42:00,40.0,36.0,30.09,ESE,120,0.0,1.0,87,0.00,,,0.13,,2013-03-17 13:42:00,
2013-03-17 06:52:00,40.0,36.0,30.10,East,97,1.0,1.0,86,0.00,,,0.13,,2013-03-17 13:52:00,
2013-03-17 07:02:00,40.0,36.0,30.10,East,97,1.0,1.0,86,0.00,,,0.13,,2013-03-17 14:02:00,
2013-03-17 07:12:00,40.0,36.0,30.10,East,97,1.0,1.0,86,0.00,,,0.13,,2013-03-17 14:12:00,
2013-03-17 07:22:00,40.0,36.0,30.11,SSW,202,1.0,3.0,86,0.00,,,0.13,,2013-03-17 14:22:00,
2013-03-17 07:32:00,40.0,36.0,30.11,SSW,202,1.0,3.0,86,0.00,,,0.13,,2013-03-17 14:32:00,
2013-03-17 07:42:00,40.0,36.0,30.11,SSW,202,1.0,3.0,86,0.00,,,0.13,,2013-03-17 14:42:00,
2013-03-17 07:52:00,40.0,36.0,30.12,South,186,2.0,3.0,85,0.00,,,0.13,,2013-03-17 14:52:00,
2013-03-17 08:02:00,40.0,36.0,30.12,South,186,2.0,3.0,85,0.00,,,0.13,,2013-03-17 15:02:00,
2013-03-17 08:12:00,40.0,36.0,30.12,South,186,2.0,3.0,85,0.00,,,0.13,,2013-03-17 15:12:00,
2013-03-17 08:22:00,40.0,36.0,30.14,ESE,118,2.0,4.0,84,0.00,,,0.13,,2013-03-17 15:22:00,
2013-03-17 08:33:00,40.0,36.0,30.14,ESE,118,2.0,4.0,84,0.00,,,0.13,,2013-03-17 15:33:00,
2013-03-17 08:42:00,40.0,36.0,30.14,ESE,118,2.0,4.0,84,0.00,,,0.13,,2013-03-17 15:42:00,
2013-03-17 08:52:00,40.0,35.0,30.15,SSE,162,1.0,5.0,83,0.00,,,0.13,,2013-03-17 15:52:00,
2013-03-17 09:03:00,40.0,35.0,30.15,SSE,162,1.0,5.0,83,0.00,,,0.13,,2013-03-17 16:03:00,
2013-03-17 09:12:00,40.0,35.0,30.15,SSE,162,1.0,5.0,83,0.00,,,0.13,,2013-03-17 16:12:00,
2013-03-17 09:22:00,40.0,35.0,30.16,East,80,3.0,7.0,82,0.00,,,0.13,,2013-03-17 16:22:00,
2013-03-17 09:33:00,40.0,35.0,30.16,East,80,3.0,7.0,82,0.00,,,0.13,,2013-03-17 16:33:00,
2013-03-17 09:42:00,40.0,35.0,30.16,East,80,3.0,7.0,82,0.00,,,0.13,,2013-03-17 16:42:00,
2013-03-17 09:52:00,41.0,36.0,30.16,NE,41,1.0,3.0,81,0.00,,,0.13,,2013-03-17 16:52:00,
2013-03-17 10:02:00,41.0,36.0,30.16,NE,41,1.0,3.0,81,0.00,,,0.13,,2013-03-17 17:02:00,
2013-03-17 10:12:00,41.0,36.0,30.16,NE,41,1.0,3.0,81,0.00,,,0.13,,2013-03-17 17:12:00,
2013-03-17 10:22:00,41.0,35.0,30.17,WSW,240,2.0,7.0,80,0.00,,,0.13,,2013-03-17 17:22:00,
2013-03-17 10:33:00,41.0,35.0,30.17,WSW,240,2.0,7.0,80,0.00,,,0.13,,2013-03-17 17:33:00,
2013-03-17 10:42:00,41.0,35.0,30.17,WSW,240,2.0,7.0,80,0.00,,,0.13,,2013-03-17 17:42:00,
2013-03-17 10:52:00,43.0,36.0,30.18,SSW,210,2.0,9.0,77,0.00,,,0.13,,2013-03-17 17:52:00,
2013-03-17 11:02:00,43.0,36.0,30.18,SSW,210,2.0,9.0,77,0.00,,,0.13,,2013-03-17 18:02:00,
2013-03-17 11:12:00,43.0,36.0,30.18,SSW,210,2.0,9.0,77,0.00,,,0.13,,2013-03-17 18:12:00,
2013-03-17 11:22:00,43.0,35.0,30.19,SW,226,3.0,12.0,74,0.00,,,0.13,,2013-03-17 18:22:00,
2013-03-17 11:32:00,43.0,35.0,30.19,SW,226,3.0,12.0,74,0.00,,,0.13,,2013-03-17 18:32:00,
2013-03-17 11:42:00,43.0,35.0,30.19,SW,226,3.0,12.0,74,0.00,,,0.13,,2013-03-17 18:42:00,
2013-03-17 11:52:00,44.0,36.0,30.19,SW,226,2.0,14.0,73,0.00,,,0.13,,2013-03-17 18:52:00,
2013-03-17 12:02:00,44.0,36.0,30.19,SW,226,2.0,14.0,73,0.00,,,0.13,,2013-03-17 19:02:00,
2013-03-17 12:12:00,44.0,36.0,30.19,SW,226,2.0,14.0,73,0.00,,,0.13,,2013-03-17 19:12:00,
2013-03-17 12:20:00,46.0,36.0,30.18,NW,312,5.0,12.0,67,0.00,,,0.13,,2013-03-17 19:20:00,
2013-03-17 12:22:00,46.0,36.0,30.18,WNW,285,5.0,13.0,68,0.00,,,0.13,,2013-03-17 19:22:00,
2013-03-17 12:32:00,46.0,36.0,30.18,WNW,285,5.0,13.0,68,0.00,,,0.13,,2013-03-17 19:32:00,
2013-03-17 12:41:00,46.0,36.0,30.18,WNW,285,5.0,13.0,68,0.00,,,0.13,,2013-03-17 19:41:00,
2013-03-17 12:52:00,46.0,36.0,30.18,NW,312,5.0,12.0,67,0.00,,,0.13,,2013-03-17 19:52:00,
2013-03-17 13:02:00,46.0,36.0,30.18,NW,312,5.0,12.0,67,0.00,,,0.13,,2013-03-17 20:02:00,
2013-03-17 13:12:00,46.0,36.0,30.18,NW,312,5.0,12.0,67,0.00,,,0.13,,2013-03-17 20:12:00,
2013-03-17 13:52:00,47.0,35.0,30.18,WNW,283,4.0,12.0,62,0.00,,,0.04,,2013-03-17 20:52:00,
2013-03-17 14:02:00,47.0,35.0,30.18,WNW,283,4.0,12.0,62,0.00,,,0.04,,2013-03-17 21:02:00,
2013-03-17 14:12:00,47.0,35.0,30.18,WNW,283,4.0,12.0,62,0.00,,,0.04,,2013-03-17 21:12:00,
2013-03-17 14:22:00,48.0,36.0,30.17,SW,236,6.0,12.0,62,0.00,,,0.04,,2013-03-17 21:22:00,
2013-03-17 14:33:00,48.0,36.0,30.16,West,273,5.0,11.0,62,0.00,,,0.00,,2013-03-17 21:33:00,
2013-03-17 14:42:00,48.0,36.0,30.16,West,273,5.0,11.0,62,0.00,,,0.00,,2013-03-17 21:42:00,
2013-03-17 14:52:00,48.0,36.0,30.16,West,273,5.0,11.0,62,0.00,,,0.00,,2013-03-17 21:52:00,
2013-03-17 15:02:00,48.0,36.0,30.16,West,273,5.0,11.0,62,0.00,,,0.00,,2013-03-17 22:02:00,
2013-03-17 15:12:00,47.0,35.0,30.16,SW,226,7.0,14.0,63,0.00,,,0.00,,2013-03-17 22:12:00,
2013-03-17 15:22:00,47.0,35.0,30.16,SW,226,7.0,14.0,63,0.00,,,0.00,,2013-03-17 22:22:00,
2013-03-17 15:33:00,47.0,35.0,30.16,WSW,252,4.0,15.0,64,0.00,,,0.00,,2013-03-17 22:33:00,
2013-03-17 15:42:00,47.0,35.0,30.16,WSW,252,4.0,15.0,64,0.00,,,0.00,,2013-03-17 22:42:00,
2013-03-17 15:52:00,47.0,35.0,30.16,WSW,252,4.0,15.0,64,0.00,,,0.00,,2013-03-17 22:52:00,
2013-03-17 16:02:00,47.0,35.0,30.16,WSW,252,4.0,15.0,64,0.00,,,0.00,,2013-03-17 23:02:00,
2013-03-17 16:12:00,47.0,35.0,30.16,WSW,252,4.0,15.0,64,0.00,,,0.00,,2013-03-17 23:12:00,
2013-03-17 16:21:00,48.0,34.0,30.16,SSW,212,6.0,14.0,59,0.00,,,0.00,,2013-03-17 23:21:00,
2013-03-17 16:32:00,48.0,34.0,30.16,SSW,212,6.0,14.0,59,0.00,,,0.00,,2013-03-17 23:32:00,
2013-03-17 16:42:00,48.0,34.0,30.16,SSW,212,6.0,14.0,59,0.00,,,0.00,,2013-03-17 23:42:00,
2013-03-17 16:52:00,46.0,35.0,30.16,NW,322,2.0,17.0,66,0.00,,,0.00,,2013-03-17 23:52:00,
2013-03-17 17:03:00,46.0,35.0,30.16,NW,322,2.0,17.0,66,0.00,,,0.00,,2013-03-18 00:03:00,
2013-03-17 17:12:00,46.0,35.0,30.16,NW,322,2.0,17.0,66,0.00,,,0.00,,2013-03-18 00:12:00,
2013-03-17 17:22:00,45.0,36.0,30.16,SW,228,4.0,12.0,70,0.00,,,0.00,,2013-03-18 00:22:00,
2013-03-17 17:32:00,45.0,36.0,30.16,SW,228,4.0,12.0,70,0.00,,,0.00,,2013-03-18 00:32:00,
2013-03-17 17:42:00,45.0,36.0,30.16,SW,228,4.0,12.0,70,0.00,,,0.00,,2013-03-18 00:42:00,
2013-03-17 17:52:00,45.0,36.0,30.16,WNW,287,4.0,10.0,70,0.00,,,0.00,,2013-03-18 00:52:00,
2013-03-17 18:01:00,45.0,36.0,30.16,WNW,287,4.0,10.0,70,0.00,,,0.00,,2013-03-18 01:01:00,
2013-03-17 18:12:00,45.0,36.0,30.16,WNW,287,4.0,10.0,70,0.00,,,0.00,,2013-03-18 01:12:00,
2013-03-17 18:22:00,45.0,35.0,30.16,NW,314,2.0,6.0,68,0.00,,,0.00,,2013-03-18 01:22:00,
2013-03-17 18:32:00,45.0,35.0,30.16,NW,314,2.0,6.0,68,0.00,,,0.00,,2013-03-18 01:32:00,
2013-03-17 18:42:00,45.0,35.0,30.16,NW,314,2.0,6.0,68,0.00,,,0.00,,2013-03-18 01:42:00,
2013-03-17 18:52:00,44.0,34.0,30.16,WSW,252,3.0,9.0,69,0.00,,,0.00,,2013-03-18 01:52:00,
2013-03-17 19:02:00,43.0,34.0,30.16,SW,231,3.0,7.0,71,0.00,,,0.00,,2013-03-18 02:02:00,
2013-03-17 19:12:00,43.0,34.0,30.16,SW,231,3.0,7.0,71,0.00,,,0.00,,2013-03-18 02:12:00,
2013-03-17 19:22:00,43.0,34.0,30.16,SW,231,3.0,7.0,71,0.00,,,0.00,,2013-03-18 02:22:00,
2013-03-17 19:42:00,43.0,34.0,30.16,SW,231,3.0,7.0,71,0.00,,,0.00,,2013-03-18 02:42:00,
2013-03-17 19:52:00,43.0,35.0,30.16,WSW,252,4.0,9.0,72,0.00,,,0.00,,2013-03-18 02:52:00,
2013-03-17 20:02:00,43.0,35.0,30.16,WSW,252,4.0,9.0,72,0.00,,,0.00,,2013-03-18 03:02:00,
2013-03-17 20:11:00,43.0,35.0,30.16,WSW,252,4.0,9.0,72,0.00,,,0.00,,2013-03-18 03:11:00,
2013-03-17 20:21:00,42.0,35.0,30.16,SSW,211,3.0,6.0,76,0.00,,,0.00,,2013-03-18 03:21:00,
2013-03-17 20:33:00,42.0,35.0,30.16,SSW,211,3.0,6.0,76,0.00,,,0.00,,2013-03-18 03:33:00,
2013-03-17 20:42:00,42.0,35.0,30.16,SSW,211,3.0,6.0,76,0.00,,,0.00,,2013-03-18 03:42:00,
2013-03-17 20:52:00,42.0,35.0,30.16,SSW,210,2.0,9.0,77,0.00,,,0.00,,2013-03-18 03:52:00,
2013-03-17 21:02:00,42.0,35.0,30.16,SSW,210,2.0,9.0,77,0.00,,,0.00,,2013-03-18 04:02:00,
2013-03-17 21:12:00,42.0,35.0,30.16,SSW,210,2.0,9.0,77,0.00,,,0.00,,2013-03-18 04:12:00,
2013-03-17 21:22:00,42.0,36.0,30.16,SW,222,4.0,10.0,78,0.00,,,0.00,,2013-03-18 04:22:00,
2013-03-17 21:33:00,42.0,36.0,30.16,SW,222,4.0,10.0,78,0.00,,,0.00,,2013-03-18 04:33:00,
2013-03-17 21:42:00,42.0,36.0,30.16,SW,222,4.0,10.0,78,0.00,,,0.00,,2013-03-18 04:42:00,
2013-03-17 21:52:00,41.0,35.0,30.17,South,191,2.0,12.0,79,0.00,,,0.00,,2013-03-18 04:52:00,
2013-03-17 22:02:00,41.0,35.0,30.17,South,191,2.0,12.0,79,0.00,,,0.00,,2013-03-18 05:02:00,
2013-03-17 22:12:00,41.0,35.0,30.17,South,191,2.0,12.0,79,0.00,,,0.00,,2013-03-18 05:12:00,
2013-03-17 22:22:00,41.0,35.0,30.17,SW,222,3.0,10.0,79,0.00,,,0.00,,2013-03-18 05:22:00,
2013-03-17 22:32:00,41.0,35.0,30.17,SW,222,3.0,10.0,79,0.00,,,0.00,,2013-03-18 05:32:00,
2013-03-17 22:42:00,41.0,35.0,30.17,SW,222,3.0,10.0,79,0.00,,,0.00,,2013-03-18 05:42:00,
2013-03-17 22:52:00,41.0,36.0,30.18,WNW,300,2.0,8.0,81,0.00,,,0.00,,2013-03-18 05:52:00,
2013-03-17 23:02:00,41.0,36.0,30.18,WNW,300,2.0,8.0,81,0.00,,,0.00,,2013-03-18 06:02:00,
2013-03-17 23:12:00,41.0,36.0,30.18,WNW,300,2.0,8.0,81,0.00,,,0.00,,2013-03-18 06:12:00,
2013-03-17 23:22:00,41.0,35.0,30.18,WSW,257,4.0,7.0,80,0.00,,,0.00,,2013-03-18 06:22:00,
2013-03-17 23:32:00,41.0,35.0,30.18,WSW,257,4.0,7.0,80,0.00,,,0.00,,2013-03-18 06:32:00,
2013-03-17 23:42:00,41.0,35.0,30.18,WSW,257,4.0,7.0,80,0.00,,,0.00,,2013-03-18 06:42:00,
2013-03-17 23:52:00,41.0,35.0,30.18,ESE,118,4.0,9.0,80,0.00,,,0.00,,2013-03-18 06:52:00,